Weather History for Gilze-Rijen, Netherlands

Change the Weather History Date:

Thursday, October 10, 2013

  Actual Average Record
Temperature  
Mean Temperature 50 °F -  
Max Temperature 55 °F 54 °F 73 °F (2005)
Min Temperature 44 °F 42 °F 35 °F (2012)
Degree Days  
Heating Degree Days 16    
Moisture  
Dew Point 43 °F    
Average Humidity 84    
Maximum Humidity 100    
Minimum Humidity 58    
Precipitation  
Precipitation 0.00 in - - ()
Sea Level Pressure  
Sea Level Pressure 29.78 in    
Wind  
Wind Speed 7 mph ()    
Max Wind Speed 13 mph    
Max Gust Speed 26 mph    
Visibility 6.0 miles    
Events Rain    
Averages and records for this station are not official NWS values.
T = Trace of Precipitation, MM = Missing Value Source: Averaged Metar Reports

Daily Weather History Graph

Daily Weather History Graph

Search for Another Location

Airport:

Trip Planner

Search our weather history database for the weather conditions in past years. The results will help you decide how hot, cold, wet, or windy it might be!

Date:

Astronomy

Oct. 10, 2013 Rise Set
Actual Time 7:55 AM CEST 6:57 PM CEST
Civil Twilight 7:22 AM CEST 7:31 PM CEST
Nautical Twilight 6:43 AM CEST 8:09 PM CEST
Astronomical Twilight 6:04 AM CEST 8:48 PM CEST
Moon 2:01 PM CEST (10/10) 10:51 PM CEST (10/10)
Length of Visible Light 12h 08m
Length of Day
11h 01m
Waxing Crescent, 33% of the Moon is Illuminated
Oct 10
Waxing Crescent
Oct 12
First Quarter
Oct 19
Full
Oct 27
Last Quarter
Nov 3
New

Hourly Weather History & Observations

Time (CEST) Temp. Windchill Dew Point Humidity Pressure Visibility Wind Dir Wind Speed Gust Speed Precip Events Conditions
12:25 AM 48.2 °F - 46.4 °F 93% 29.83 in 6.2 mi West 2.3 mph - N/A Rain Light Rain
12:37 AM 48.2 °F - 46.4 °F 93% 29.83 in 6.2 mi WNW 3.5 mph - N/A Rain Light Rain
12:48 AM 50.0 °F - 44.6 °F 82% 29.83 in 6.2 mi NW 12.7 mph - N/A   Drizzle
12:55 AM 48.2 °F - 44.6 °F 87% 29.83 in 6.2 mi NNW 10.4 mph - N/A   Mostly Cloudy
1:03 AM 48.2 °F - 44.6 °F 87% 29.83 in 3.7 mi NNW 9.2 mph - N/A Rain Light Rain
1:16 AM 48.2 °F - 44.6 °F 87% 29.83 in 6.2 mi NW 8.1 mph - N/A   Heavy Drizzle
1:25 AM 48.2 °F - 44.6 °F 87% 29.83 in 6.2 mi WNW 6.9 mph - N/A Rain Rain Showers
1:55 AM 46.4 °F 45.2 °F 44.6 °F 93% 29.83 in 6.2 mi West 3.5 mph - N/A   Drizzle
2:25 AM 44.6 °F 42.2 °F 44.6 °F 100% 29.80 in 6.2 mi SW 4.6 mph - N/A   Partly Cloudy
2:55 AM 46.4 °F 43.5 °F 44.6 °F 93% 29.80 in 6.2 mi SW 5.8 mph - N/A   Mostly Cloudy
3:25 AM 44.6 °F 40.7 °F 42.8 °F 93% 29.80 in 6.2 mi SSW 6.9 mph - N/A   Partly Cloudy
3:55 AM 44.6 °F 41.4 °F 42.8 °F 93% 29.77 in 6.2 mi SW 5.8 mph - N/A   Partly Cloudy
4:04 AM 46.4 °F 42.9 °F 42.8 °F 87% 29.77 in 3.7 mi WSW 6.9 mph - N/A   Mostly Cloudy
4:09 AM 46.4 °F 41.5 °F 42.8 °F 87% 29.80 in 6.2 mi West 10.4 mph 26.5 mph N/A Rain Rain
4:25 AM 46.4 °F 41.5 °F 41.0 °F 81% 29.77 in 6.2 mi WSW 10.4 mph 21.9 mph N/A Rain Light Rain
4:30 AM 46.4 °F 42.4 °F 41.0 °F 81% 29.77 in 6.2 mi WSW 8.1 mph - N/A Rain Light Rain
4:40 AM 46.4 °F 42.9 °F 41.0 °F 81% 29.77 in 6.2 mi WSW 6.9 mph - N/A   Overcast
4:55 AM 44.6 °F 41.4 °F 41.0 °F 87% 29.77 in 6.2 mi SW 5.8 mph - N/A   Partly Cloudy
5:25 AM 44.6 °F 40.7 °F 42.8 °F 93% 29.77 in 6.2 mi WSW 6.9 mph - N/A Rain Light Rain
5:32 AM 46.4 °F 42.4 °F 42.8 °F 87% 29.77 in 6.2 mi West 8.1 mph - N/A Rain Light Rain
5:42 AM 44.6 °F 40.2 °F 42.8 °F 93% 29.77 in 6.2 mi WNW 8.1 mph - N/A Rain Rain Showers
5:55 AM 44.6 °F 42.2 °F 42.8 °F 93% 29.74 in 6.2 mi WSW 4.6 mph - N/A   Overcast
6:01 AM 46.4 °F 42.9 °F 42.8 °F 87% 29.77 in 6.2 mi West 6.9 mph - N/A Rain Light Rain
6:10 AM 46.4 °F 42.4 °F 41.0 °F 81% 29.74 in 6.2 mi WNW 8.1 mph - N/A Rain Light Rain Showers
6:14 AM 46.4 °F 42.4 °F 41.0 °F 81% 29.74 in 6.2 mi West 8.1 mph - N/A Rain Light Rain Showers
6:25 AM 44.6 °F 40.7 °F 41.0 °F 87% 29.74 in 6.2 mi West 6.9 mph - N/A Rain Light Rain
6:29 AM 44.6 °F 39.7 °F 41.0 °F 87% 29.74 in 3.1 mi West 9.2 mph - N/A Rain Rain
6:31 AM 44.6 °F 39.2 °F 42.8 °F 93% 29.74 in - West 10.4 mph - N/A Rain Rain
6:37 AM 44.6 °F 38.8 °F 42.8 °F 93% 29.74 in 4.3 mi West 11.5 mph - N/A Rain Rain Showers
6:41 AM 44.6 °F 39.7 °F 42.8 °F 93% 29.74 in 5.6 mi West 9.2 mph - N/A Rain Rain Showers
6:50 AM 44.6 °F 41.4 °F 42.8 °F 93% 29.74 in 6.2 mi WSW 5.8 mph - N/A Rain Light Rain
6:55 AM 44.6 °F 41.4 °F 42.8 °F 93% 29.74 in 6.2 mi West 5.8 mph - N/A   Mostly Cloudy
7:05 AM 44.6 °F 41.4 °F 42.8 °F 93% 29.74 in 6.2 mi WSW 5.8 mph - N/A   Mostly Cloudy
7:25 AM 44.6 °F 41.4 °F 42.8 °F 93% 29.74 in 6.2 mi SW 5.8 mph - N/A   Scattered Clouds
7:55 AM 44.6 °F 41.4 °F 42.8 °F 93% 29.74 in 6.2 mi WSW 5.8 mph - N/A   Mostly Cloudy
8:25 AM 44.6 °F 40.7 °F 42.8 °F 93% 29.74 in 6.2 mi West 6.9 mph - N/A   Mostly Cloudy
8:26 AM 44.6 °F 40.7 °F 42.8 °F 93% 29.74 in 6.2 mi West 6.9 mph - N/A   Mostly Cloudy
8:55 AM 44.6 °F 40.2 °F 42.8 °F 93% 29.74 in 6.2 mi West 8.1 mph - N/A   Unknown
9:25 AM 46.4 °F 41.9 °F 42.8 °F 87% 29.74 in 6.2 mi WNW 9.2 mph - N/A   Unknown
9:55 AM 48.2 °F - 42.8 °F 82% 29.74 in 6.2 mi NW 10.4 mph - N/A   Unknown
10:25 AM 50.0 °F - 44.6 °F 82% 29.77 in 6.2 mi NW 5.8 mph - N/A   Overcast
10:55 AM 50.0 °F - 41.0 °F 71% 29.77 in 6.2 mi NNW 6.9 mph - N/A   Unknown
11:17 AM 51.8 °F - 42.8 °F 71% 29.77 in 6.2 mi North 6.9 mph - N/A   Unknown
11:25 AM 51.8 °F - 42.8 °F 71% 29.77 in 6.2 mi NNW 6.9 mph - N/A   Unknown
11:55 AM 51.8 °F - 42.8 °F 71% 29.77 in 6.2 mi North 8.1 mph - N/A   Unknown
12:25 PM 53.6 °F - 42.8 °F 67% 29.80 in 6.2 mi North 6.9 mph - N/A   Unknown
12:55 PM 53.6 °F - 41.0 °F 62% 29.80 in 6.2 mi North 9.2 mph - N/A   Overcast
1:18 PM 55.4 °F - 41.0 °F 58% 29.80 in 6.2 mi North 8.1 mph - N/A   Partly Cloudy
1:25 PM 55.4 °F - 41.0 °F 58% 29.80 in 6.2 mi North 8.1 mph - N/A   Scattered Clouds
1:55 PM 55.4 °F - 41.0 °F 58% 29.80 in 6.2 mi NNW 10.4 mph - N/A   Mostly Cloudy
2:25 PM 55.4 °F - 41.0 °F 58% 29.80 in 6.2 mi NW 10.4 mph - N/A   Mostly Cloudy
2:55 PM 55.4 °F - 41.0 °F 58% 29.80 in 6.2 mi NW 11.5 mph - N/A   Mostly Cloudy
3:25 PM 53.6 °F - 42.8 °F 67% 29.80 in 6.2 mi WNW 11.5 mph - N/A   Overcast
3:55 PM 53.6 °F - 42.8 °F 67% 29.80 in 6.2 mi NW 12.7 mph - N/A   Mostly Cloudy
4:25 PM 53.6 °F - 42.8 °F 67% 29.77 in 6.2 mi WNW 12.7 mph - N/A   Mostly Cloudy
4:36 PM 53.6 °F - 44.6 °F 72% 29.77 in 6.2 mi WNW 11.5 mph - N/A   Mostly Cloudy
4:55 PM 53.6 °F - 44.6 °F 72% 29.77 in 6.2 mi West 10.4 mph - N/A   Overcast
5:00 PM 53.6 °F - 44.6 °F 72% 29.77 in 6.2 mi West 11.5 mph - N/A   Overcast
5:01 PM 53.6 °F - 44.6 °F 72% 29.77 in 6.2 mi West 11.5 mph - N/A   Overcast
5:13 PM 53.6 °F - 44.6 °F 72% 29.77 in 6.2 mi West 9.2 mph - N/A   Mostly Cloudy
5:17 PM 51.8 °F - 44.6 °F 76% 29.77 in 6.2 mi West 10.4 mph - N/A   Mostly Cloudy
5:25 PM 51.8 °F - 44.6 °F 76% 29.77 in 6.2 mi West 10.4 mph - N/A   Mostly Cloudy
5:44 PM 51.8 °F - 44.6 °F 76% 29.77 in 6.2 mi West 8.1 mph - N/A   Partly Cloudy
5:55 PM 51.8 °F - 44.6 °F 76% 29.77 in 6.2 mi West 8.1 mph - N/A   Unknown
6:25 PM 50.0 °F - 44.6 °F 82% 29.77 in 6.2 mi West 4.6 mph - N/A   Mostly Cloudy
6:55 PM 48.2 °F - 42.8 °F 82% 29.77 in 6.2 mi West 4.6 mph - N/A   Partly Cloudy
7:25 PM 48.2 °F - 44.6 °F 87% 29.77 in 6.2 mi WSW 4.6 mph - N/A   Overcast
7:55 PM 46.4 °F 45.2 °F 44.6 °F 93% 29.77 in 6.2 mi SW 3.5 mph - N/A   Overcast
8:03 PM 48.2 °F - 44.6 °F 87% 29.77 in 6.2 mi SW 4.6 mph - N/A   Overcast
8:25 PM 48.2 °F - 44.6 °F 87% 29.77 in 6.2 mi WSW 4.6 mph - N/A   Scattered Clouds
8:55 PM 46.4 °F 44.3 °F 44.6 °F 93% 29.77 in 6.2 mi SW 4.6 mph - N/A   Mostly Cloudy
9:25 PM 46.4 °F 45.2 °F 44.6 °F 93% 29.77 in 6.2 mi WSW 3.5 mph - N/A   Mostly Cloudy
9:55 PM 46.4 °F - 44.6 °F 93% 29.77 in 6.2 mi WSW 2.3 mph - N/A   Overcast
10:25 PM 44.6 °F - 42.8 °F 93% 29.77 in 6.2 mi SSE 2.3 mph - N/A   Overcast
10:55 PM 46.4 °F 45.2 °F 44.6 °F 93% 29.80 in 6.2 mi SSE 3.5 mph - N/A   Overcast
10:59 PM 46.4 °F 45.2 °F 44.6 °F 93% 29.80 in 4.3 mi SSE 3.5 mph - N/A   Mostly Cloudy
11:02 PM 46.4 °F 45.2 °F 44.6 °F 93% 29.80 in 5.0 mi SSE 3.5 mph - N/A   Mostly Cloudy
11:07 PM 46.4 °F 45.2 °F 44.6 °F 93% 29.80 in 4.3 mi SE 3.5 mph - N/A   Mostly Cloudy
11:11 PM 44.6 °F 43.1 °F 44.6 °F 100% 29.80 in 5.0 mi ESE 3.5 mph - N/A   Overcast
11:25 PM 44.6 °F - 44.6 °F 100% 29.80 in 6.2 mi SSE 2.3 mph - N/A   Mostly Cloudy
11:55 PM 44.6 °F - 42.8 °F 93% 29.80 in 6.2 mi South 2.3 mph - N/A   Overcast